[[{"header":{"parameterUnit":"m.s-1","parameterCategory":1,"la1":30.2991,"la2":30.254,"lo1":-89.0895,"lo2":-89.0444,"dy":0.0017,"dx":0.0017,"nx":28,"ny":28,"refTime":"2024-12-06T09:00:00:Z","depth":0,"parameterNumber":2,"parameterNumberName":"U-component_of_WINDS"},"data":[0,0,0,0,0,0,0,0,0,0,0,0,0,0,0,0,0,0,0,0,0,0,0,0,0,0,0,0,0,0,0,0,0,0,0,0,0,0,0,0,0,0,0,0,0,0,0,0,0,0,0,0,0,0,0,0,0,0,-3.6508,-3.6508,0,-3.6548,-3.6548,-3.6549,-3.6408,-3.6404,-3.64,-3.6396,-3.6439,-3.6444,-3.6449,0,0,0,0,0,0,0,0,0,0,0,0,0,-3.6309,-3.6314,-3.6507,-3.6508,-3.6509,-3.6548,-3.6548,-3.6549,-3.6409,-3.6404,-3.6399,-3.6394,-3.6437,-3.6443,-3.6449,0,0,0,0,0,0,0,0,0,0,0,0,0,-3.6377,-3.6315,-3.6507,-3.6443,-3.6438,-3.6548,-3.6548,-3.6549,-3.641,-3.6404,-3.6397,-3.6391,-3.6435,-3.6443,-3.645,-3.6624,0,0,-3.6474,-3.6477,0,0,0,0,0,0,0,0,-3.6374,-3.6385,-3.6452,-3.6448,-3.6442,-3.6466,-3.6494,-3.6574,-3.6412,-3.6421,-3.6396,-3.6388,-3.6453,-3.6459,-3.6481,-3.6626,-3.6628,-3.6474,-3.6479,-3.6482,-3.6484,0,0,0,0,0,0,0,-3.6369,-3.6382,-3.6523,-3.6453,-3.6447,-3.6413,-3.6415,-3.6509,-3.6472,-3.6419,-3.6409,-3.6416,-3.6449,-3.6474,-3.6481,-3.6629,-3.6474,-3.6481,-3.6486,-3.6489,-3.6918,-3.6925,0,0,0,0,0,0,-3.6373,-3.6379,-3.6522,-3.6525,-3.6392,-3.6421,-3.6424,-3.6465,-3.6471,-3.6466,-3.6421,-3.6409,-3.6464,-3.6472,-3.6482,-3.6686,-3.6482,-3.6489,-3.6494,-3.6912,-3.692,-3.6927,0,0,0,0,0,0,-3.6369,-3.6387,-3.6521,-3.6449,-3.6464,-3.6432,-3.6479,-3.6469,-3.6493,-3.6472,-3.6465,-3.6453,-3.6459,-3.6471,-3.659,-3.6685,-3.6493,-3.65,-3.6903,-3.6914,-3.6923,-3.7096,0,0,0,0,0,0,-3.6364,-3.6386,-3.6452,-3.6452,-3.6468,-3.6628,-3.6484,-3.6475,-3.6507,-3.6491,-3.65,-3.6495,-3.6455,-3.6579,-3.6597,-3.6692,-3.6506,-3.6895,-3.6908,-3.692,-3.7081,-3.711,-3.7135,0,0,0,0,0,-3.6357,-3.65,-3.6456,-3.6474,-3.655,-3.6634,-3.6643,-3.6594,-3.6515,-3.6581,-3.6567,-3.6495,-3.6671,-3.6592,-3.6612,-3.6711,-3.6889,-3.6904,-3.6919,-3.7069,-3.7105,-3.7135,0,0,0,0,0,0,-3.6513,-3.6498,-3.645,-3.6596,-3.6618,-3.661,-3.6692,-3.6633,-3.6678,-3.6661,-3.6598,-3.6601,-3.6731,-3.6732,-3.6644,-3.6879,-3.6766,-3.6786,-3.6874,-3.6907,-3.6934,-3.6932,-3.6512,0,0,0,0,0,-3.6564,-3.6634,-3.6617,-3.6748,-3.6761,-3.6725,-3.676,-3.672,-3.6739,-3.6748,-3.6742,-3.6764,-3.6824,-3.6866,-3.692,-3.708,-3.708,-3.7157,-3.7184,-3.7207,-3.7225,-3.731,-3.7344,-3.6978,-3.6978,-3.6977,0,0,-3.6671,-3.6672,-3.672,-3.6779,-3.6791,-3.6864,-3.6734,-3.6817,-3.6871,-3.676,-3.6872,-3.6869,-3.6889,-3.703,-3.7091,-3.7034,-3.7326,-3.7226,-3.7244,-3.7251,-3.7329,-3.7364,-3.7395,-3.6988,-3.6986,-3.6985,0,0,-3.6904,-3.6911,-3.702,-3.7034,-3.7053,-3.7028,-3.7055,-3.7056,-3.705,-3.716,-3.7078,-3.7142,-3.7247,-3.7264,-3.7287,-3.7525,-3.7461,-3.7544,-3.7687,-3.777,-3.7799,-3.7824,-3.7909,-3.7941,-3.7563,-3.7563,-3.7563,0,-3.7035,-3.7142,-3.7084,-3.7174,-3.7202,-3.7104,-3.7214,-3.7231,-3.7267,-3.7289,-3.7224,-3.7354,-3.736,-3.7503,-3.7561,-3.7583,-3.7611,-3.7544,-3.7799,-3.7824,-3.7847,-3.7927,-3.796,-3.7573,-3.7572,-3.7571,-3.757,0,-3.7302,-3.7378,-3.7464,-3.7501,-3.7538,-3.7638,-3.7596,-3.7641,-3.7597,-3.7579,-3.7693,-3.7697,-3.775,-3.7781,-3.7739,-3.7918,-3.7882,-3.781,-3.7696,-3.7893,-3.7967,-3.7998,-3.7588,-3.7584,-3.7581,-3.7578,0,0,-3.7636,-3.7638,-3.7671,-3.7686,-3.7699,-3.7756,-3.7851,-3.7902,-3.7943,-3.797,-3.8048,-3.8139,-3.8071,-3.8097,-3.8056,-3.8129,-3.8317,-3.8047,-3.8046,-3.8098,-3.8515,-3.857,-3.8607,-3.8274,-3.8279,-3.8284,-3.8513,0,-3.7865,-3.8027,-3.7977,-3.8141,-3.821,-3.8117,-3.8199,-3.8216,-3.8201,-3.8257,-3.824,-3.8306,-3.8212,-3.8227,-3.8294,-3.828,-3.8401,-3.8263,-3.8346,-3.835,-3.8346,-3.8646,-3.8705,-3.8922,-3.8542,-3.8547,-3.8551,0,-3.8155,-3.8193,-3.8364,-3.8364,-3.8391,-3.8466,-3.8508,-3.8563,-3.858,-3.8564,-3.8593,-3.8536,-3.8629,-3.8514,-3.8641,-3.8548,-3.8579,-3.8577,-3.8584,-3.8591,-3.8464,-3.8662,-3.899,-3.9023,-3.8596,-3.8592,-3.8589,0,-3.8382,-3.8476,-3.859,-3.8606,-3.8609,-3.8664,-3.8668,-3.8678,-3.8712,-3.8749,-3.877,-3.8818,-3.8844,-3.8882,-3.884,-3.876,-3.8974,-3.8855,-3.8963,-3.8965,-3.9014,-3.9012,-3.9352,-3.9033,-3.9032,-3.9031,-3.9031,0,-3.8644,-3.8752,-3.8692,-3.8763,-3.8881,-3.8822,-3.894,-3.8934,-3.8943,-3.9011,-3.8932,-3.8997,-3.8937,-3.8996,-3.8964,-3.9074,-3.9086,-3.9076,-3.9066,-3.9084,-3.9086,-3.9104,-3.9089,-3.904,-3.9038,-3.9036,-3.9035,0,-3.8919,-3.8883,-3.9001,-3.8994,-3.8994,-3.9082,-3.9075,-3.914,-3.9119,-3.9205,-3.9222,-3.9189,-3.9254,-3.9215,-3.9282,-3.926,-3.9404,-3.9373,-3.9399,-3.9391,-3.9502,-3.9493,-3.9868,-3.9914,-3.9564,-3.9567,-3.957,0,-3.9089,-3.917,-3.9171,-3.921,-3.9219,-3.9283,-3.9317,-3.9262,-3.93,-3.9325,-3.9387,-3.9445,-3.9489,-3.9598,-3.9581,-3.9631,-3.9602,-3.9729,-3.9609,-3.9624,-3.9604,-3.9601,-3.9608,-3.9754,-3.9759,-3.9762,-3.9765,0,-3.9396,-3.9373,-3.9425,-3.947,-3.9513,-3.9546,-3.9572,-3.9609,-3.9554,-3.9601,-3.9666,-3.9701,-3.9768,-3.9828,-3.987,-3.9874,-3.9811,-3.9802,-3.983,-3.985,-3.9862,-3.9857,-3.9466,-3.9794,-3.9791,-3.9789,-3.9788,-3.9786,-3.9624,-3.9691,-3.9702,-3.9762,-3.9776,-3.9802,-3.9862,-3.9848,-3.9902,-3.9953,-3.9916,-3.9995,-4.0008,-4.0058,-4.007,-4.013,-4.0079,-4.0119,-4.013,-4.0141,-4.0156,-3.9851,-4.0138,-4.0137,-4.0136,-4.0135,-4.0135,0,-3.9926,-3.9928,-3.9984,-4.0023,-4.007,-4.0005,-4.0031,-4.0075,-4.0144,-4.0162,-4.0206,-4.0282,-4.0339,-4.0325,-4.0376,-4.0427,-4.0399,-4.0442,-4.0438,-4.044,-4.0199,-4.017,-4.0463,-4.0463,-4.0463,-4.0463,-4.0463,-4.0463,-4.0089,-4.02,-4.0179,-4.0295,-4.0296,-4.0372,-4.0392,-4.0416,-4.043,-4.0517,-4.0564,-4.0554,-4.0559,-4.0609,-4.0659,-4.0653,-4.0676,-4.073,-4.0714,-4.049,-4.0457,-4.0426,-4.0399,-4.0735,-4.0735,-4.0949,-4.0951,-4.0953]},{"header":{"parameterUnit":"m.s-1","parameterCategory":1,"la1":30.2991,"la2":30.254,"lo1":-89.0895,"lo2":-89.0444,"dy":0.0017,"dx":0.0017,"nx":28,"ny":28,"refTime":"2024-12-06T09:00:00:Z","depth":0,"parameterNumber":3,"parameterNumberName":"V-component_of_WINDS"},"data":[0,0,0,0,0,0,0,0,0,0,0,0,0,0,0,0,0,0,0,0,0,0,0,0,0,0,0,0,0,0,0,0,0,0,0,0,0,0,0,0,0,0,0,0,0,0,0,0,0,0,0,0,0,0,0,0,0,0,-4.6588,-4.6588,0,-4.6642,-4.6643,-4.6644,-4.6591,-4.6589,-4.6587,-4.6585,-4.6638,-4.6641,-4.6644,0,0,0,0,0,0,0,0,0,0,0,0,0,-4.6433,-4.6436,-4.6588,-4.6588,-4.6589,-4.6642,-4.6643,-4.6644,-4.6592,-4.6589,-4.6587,-4.6584,-4.6637,-4.6641,-4.6645,0,0,0,0,0,0,0,0,0,0,0,0,0,-4.6495,-4.6437,-4.6588,-4.657,-4.6568,-4.6642,-4.6643,-4.6644,-4.6592,-4.6589,-4.6586,-4.6583,-4.6635,-4.664,-4.6645,-4.6738,0,0,-4.666,-4.6663,0,0,0,0,0,0,0,0,-4.6492,-4.6501,-4.6572,-4.6571,-4.657,-4.6607,-4.6608,-4.6676,-4.6593,-4.6583,-4.6585,-4.6582,-4.663,-4.6635,-4.6652,-4.6741,-4.6743,-4.6661,-4.6664,-4.6666,-4.6667,0,0,0,0,0,0,0,-4.6487,-4.6498,-4.6609,-4.6573,-4.6572,-4.6557,-4.6562,-4.662,-4.6623,-4.6584,-4.658,-4.6587,-4.6629,-4.6647,-4.6653,-4.6744,-4.6661,-4.6665,-4.6668,-4.667,-4.6909,-4.6912,0,0,0,0,0,0,-4.6486,-4.6495,-4.6607,-4.6611,-4.6522,-4.6562,-4.6568,-4.6598,-4.6622,-4.6623,-4.659,-4.6585,-4.664,-4.6647,-4.6655,-4.6763,-4.6666,-4.6671,-4.6674,-4.6905,-4.6909,-4.6913,0,0,0,0,0,0,-4.6483,-4.6496,-4.6605,-4.6552,-4.6565,-4.6568,-4.6602,-4.6601,-4.6619,-4.6627,-4.6627,-4.6609,-4.6638,-4.6647,-4.6717,-4.6764,-4.6673,-4.6677,-4.6901,-4.6907,-4.6911,-4.6983,0,0,0,0,0,0,-4.6478,-4.6495,-4.6532,-4.6553,-4.6568,-4.6669,-4.6605,-4.6604,-4.6629,-4.6622,-4.6645,-4.6646,-4.6636,-4.671,-4.6722,-4.677,-4.6681,-4.6897,-4.6904,-4.691,-4.6976,-4.6989,-4.7001,0,0,0,0,0,-4.6473,-4.655,-4.6534,-4.6548,-4.6614,-4.6672,-4.668,-4.6669,-4.6633,-4.6669,-4.6673,-4.6645,-4.6758,-4.6718,-4.6731,-4.678,-4.6894,-4.6902,-4.6909,-4.697,-4.6987,-4.7001,0,0,0,0,0,0,-4.6533,-4.6552,-4.6535,-4.6622,-4.6646,-4.6663,-4.6708,-4.6687,-4.6721,-4.6713,-4.6697,-4.6703,-4.6776,-4.6785,-4.6741,-4.687,-4.682,-4.683,-4.6862,-4.6877,-4.689,-4.6885,-4.6686,0,0,0,0,0,-4.6557,-4.6604,-4.6617,-4.6692,-4.6705,-4.6705,-4.673,-4.6719,-4.6743,-4.6752,-4.6762,-4.6785,-4.6825,-4.6852,-4.689,-4.6977,-4.698,-4.7018,-4.703,-4.704,-4.7049,-4.7094,-4.711,-4.6938,-4.6938,-4.6937,0,0,-4.6606,-4.6622,-4.6652,-4.6705,-4.6722,-4.6769,-4.6714,-4.6766,-4.68,-4.676,-4.6826,-4.6834,-4.6858,-4.6937,-4.6972,-4.6947,-4.7097,-4.705,-4.7058,-4.7061,-4.7103,-4.7119,-4.7134,-4.6943,-4.6942,-4.6941,0,0,-4.6718,-4.6737,-4.68,-4.6818,-4.6845,-4.6844,-4.6859,-4.688,-4.6884,-4.695,-4.692,-4.696,-4.703,-4.7048,-4.7066,-4.7184,-4.7158,-4.7197,-4.7261,-4.7305,-4.7318,-4.733,-4.737,-4.7385,-4.7206,-4.7206,-4.7206,0,-4.6775,-4.6846,-4.6835,-4.6889,-4.6912,-4.6878,-4.694,-4.6958,-4.6996,-4.7012,-4.6983,-4.7069,-4.7084,-4.7165,-4.7193,-4.721,-4.7225,-4.7193,-4.7318,-4.7329,-4.734,-4.7378,-4.7393,-4.721,-4.721,-4.7209,-4.7209,0,-4.6914,-4.6963,-4.7011,-4.7048,-4.7077,-4.7135,-4.713,-4.716,-4.7146,-4.7148,-4.7214,-4.723,-4.7269,-4.7288,-4.7276,-4.7367,-4.735,-4.732,-4.7268,-4.7361,-4.7396,-4.7411,-4.7216,-4.7215,-4.7214,-4.7212,0,0,-4.7066,-4.7096,-4.7113,-4.7129,-4.7156,-4.7193,-4.7248,-4.7288,-4.7312,-4.7339,-4.7384,-4.7443,-4.7415,-4.7436,-4.7425,-4.7464,-4.7553,-4.7428,-4.7428,-4.7449,-4.7652,-4.7673,-4.769,-4.7536,-4.7539,-4.7541,-4.7649,0,-4.7178,-4.7276,-4.7266,-4.7358,-4.7402,-4.737,-4.7418,-4.7439,-4.7441,-4.7478,-4.748,-4.7522,-4.7482,-4.7494,-4.7531,-4.7534,-4.7593,-4.7527,-4.7576,-4.7578,-4.7569,-4.7709,-4.7732,-4.7833,-4.7663,-4.7665,-4.7667,0,-4.7322,-4.7354,-4.7451,-4.7469,-4.7487,-4.7531,-4.7564,-4.76,-4.7622,-4.7621,-4.7644,-4.7625,-4.7679,-4.7627,-4.77,-4.7655,-4.7674,-4.7679,-4.7682,-4.7685,-4.7627,-4.7714,-4.7865,-4.788,-4.7689,-4.7687,-4.7686,0,-4.7421,-4.7488,-4.7554,-4.7569,-4.7592,-4.7623,-4.7634,-4.7653,-4.7676,-4.7705,-4.772,-4.7755,-4.7774,-4.78,-4.7791,-4.7755,-4.7865,-4.7813,-4.7863,-4.7864,-4.7887,-4.7885,-4.8042,-4.7903,-4.7902,-4.7902,-4.7902,0,-4.7546,-4.7606,-4.7598,-4.7639,-4.7704,-4.7692,-4.7756,-4.7763,-4.7779,-4.7819,-4.7794,-4.7831,-4.7817,-4.7854,-4.7847,-4.7906,-4.7915,-4.7914,-4.7912,-4.7916,-4.7916,-4.7927,-4.7919,-4.7906,-4.7905,-4.7904,-4.7904,0,-4.7667,-4.7665,-4.7734,-4.775,-4.7756,-4.7803,-4.7816,-4.7853,-4.7853,-4.7903,-4.7914,-4.7914,-4.7955,-4.7949,-4.7995,-4.799,-4.8064,-4.8053,-4.8057,-4.8053,-4.8104,-4.8098,-4.8272,-4.8293,-4.8142,-4.8143,-4.8145,0,-4.7746,-4.7791,-4.7812,-4.7837,-4.785,-4.7891,-4.7915,-4.7904,-4.7929,-4.7956,-4.7989,-4.8028,-4.8059,-4.8125,-4.8128,-4.8162,-4.8151,-4.821,-4.8156,-4.8158,-4.815,-4.8146,-4.815,-4.822,-4.8222,-4.8223,-4.8224,0,-4.7886,-4.7882,-4.7918,-4.7953,-4.7982,-4.8009,-4.8033,-4.8055,-4.8045,-4.8075,-4.8117,-4.8141,-4.8187,-4.8225,-4.8257,-4.8266,-4.8243,-4.8241,-4.8254,-4.8258,-4.8257,-4.8256,-4.8083,-4.8237,-4.8236,-4.8235,-4.8234,-4.8233,-4.7987,-4.8025,-4.8045,-4.8085,-4.8102,-4.8125,-4.816,-4.8164,-4.8199,-4.8236,-4.8227,-4.8274,-4.8292,-4.8333,-4.8346,-4.8381,-4.8359,-4.8379,-4.8383,-4.8388,-4.8393,-4.8253,-4.8387,-4.8386,-4.8386,-4.8386,-4.8385,0,-4.8123,-4.8135,-4.8172,-4.8206,-4.8237,-4.8214,-4.8239,-4.8266,-4.8308,-4.8328,-4.8358,-4.8405,-4.8441,-4.8447,-4.8481,-4.8508,-4.8498,-4.8517,-4.8514,-4.8516,-4.8411,-4.8396,-4.8524,-4.8524,-4.8524,-4.8524,-4.8524,-4.8524,-4.8198,-4.826,-4.8259,-4.8328,-4.8338,-4.8385,-4.8401,-4.8421,-4.8436,-4.849,-4.852,-4.8524,-4.8538,-4.8572,-4.8604,-4.8604,-4.8617,-4.864,-4.8636,-4.8538,-4.8524,-4.8511,-4.8496,-4.8643,-4.8644,-4.8738,-4.8739,-4.8739]}]]